Regional Weather Roundup
Issued by NWS State College, PA

Home | Current Version | Previous Version | Text Only | Print | Product List | Glossary On
Versions: 1 2 3 4 5 6 7 8 9 10 11 12 13 14 15 16 17 18 19 20 21 22 23 24 25 26 27 28 29 30 31 32 33 34 35 36 37 38 39 40 41 42 43 44 45 46 47 48 49 50
000
ASUS41 KCTP 281610
RWRCTP

REGIONAL WEATHER ROUNDUP
NATIONAL WEATHER SERVICE STATE COLLEGE PA
1200 PM EDT SAT MAR 28 2015

Note: "fair" indicates few or no clouds below 12,000 feet with no
significant weather and/or obstructions to visibility.

* = STATION THAT DOES NOT REPORT PRECIPITATION /E.G. RAIN...SNOW...ETC/
    THUNDER OR FOG.

PAZ002>004-007>009-013>016-020>023-029>032-281700-
WESTERN PENNSYLVANIA

CITY           SKY/WX    TMP DP  RH WIND       PRES   REMARKS
ERIE           PTSUNNY   20   6  55 N8        30.21R WCI  10
MEADVILLE      CLOUDY    19   8  62 N12       30.13R WCI   7
FRANKLIN*      CLOUDY    18   5  57 NW13      30.12R WCI   4
NEW CASTLE     CLOUDY    19   9  65 NW13      30.18R WCI   6
BEAVER COUNTY  CLOUDY    19   9  63 NW12      30.15R WCI   7
BUTLER*        PTSUNNY   19   9  63 N8        30.14S WCI   9
PITTSBURGH INT PTSUNNY   21   6  52 NW10      30.14R WCI  10
PITTSBURGH     CLOUDY    20   2  45 NW10G20   30.12R WCI   9
INDIANA*       CLOUDY    21  10  63 NW9G17    30.11S WCI  11
LATROBE        PTSUNNY   21   9  58 NW6       30.13S WCI  14
WASHINGTON CO* CLOUDY    21   7  53 N13       30.16S WCI   9
$$

PAZ004>006-010>012-017>019-024>028-033>037-041-042-045-046-049>053-281700-
CENTRAL PENNSYLVANIA

CITY           SKY/WX    TMP DP  RH WIND       PRES   REMARKS
BRADFORD       CLOUDY    18   7  62 N15G25    29.98S WCI   4
DUBOIS         CLOUDY    21   8  57 NW15      30.01S WCI   8
CLEARFIELD     CLOUDY    22   9  57 N10G23    30.02S WCI  11
JOHNSTOWN      LGT SNOW  16   8  71 NW13      29.97R WCI   2
ALTOONA        CLOUDY    22   8  55 NW17G26   30.00S WCI   8
STATE COLLEGE  CLOUDY    25  10  54 NW10      30.00S WCI  15
WILLIAMSPORT   CLOUDY    29   9  43 NW14G23   30.00S
SELINSGROVE    CLOUDY    29  15  56 N15G22    30.01S
FT INDIANTOWN  PTSUNNY   30  14  50 N8G28     29.96R
CAPITAL CITY   FLURRIES  28  20  71 NW15      30.00S
HARRISBURG     LGT SNOW  29  20  69 N16G25    29.99R FOG
YORK           CLOUDY    29  18  63 N9G24     29.98S
$$

PAZ038>040-043-044-047-048-054-055-060>062-067>071-281700-
EASTERN PENNSYLVANIA

CITY           SKY/WX    TMP DP  RH WIND       PRES   REMARKS
SCRANTON       CLOUDY    28  11  48 N16G24    29.92S
MOUNT POCONO   CLOUDY    25  11  55 NW20G29   29.80S WCI  11
ALLENTOWN      CLOUDY    35  15  44 NW17G24   29.90S
QUAKERTOWN*    CLOUDY    34  18  51 NW12G21   29.89R
READING        PTSUNNY   33  15  47 NW20G28   29.93S
LANCASTER      CLOUDY    33  17  51 NW16G23   29.95R
COATESVILLE    CLOUDY    32  19  59 NW14G24   29.91R
POTTSTOWN      CLOUDY    33  17  51 NW12G25   29.92R
BLUE BELL      SUNNY     36  21  55 NW15      29.89R
DOYLESTOWN     CLOUDY    35  17  47 NW17G28   29.87R
WILLOW GROVE   NOT AVBL
NORTH PHILA    CLOUDY    41  18  39 NW15G21   29.89S
PHILADELPHIA   PTSUNNY   38  17  42 N17G25    29.90S
$$



USA.gov is the U.S. government's official web portal to all federal, state and local government web resources and services.